Погода в Гудауте

Абхазия     43°06′04″N   40°38′03″E
темп.,
°C
ветер,
м/с
пор.,
м/с
влажн.,
%
обл.,
%
осадки,
мм/ч
давл.,
гПа
погр.,
м
7 мая, пт
пт700:00+16ссз037788 0.0 101432
03:00+15вюв568899 0.0 1016203
06:00+14вюв678388 0.0 1018271
09:00+14юв67895 0.0 1019338
12:00+14юв238930 0.0 1019105
15:00+14юз118432 0.0 101953
18:00+15с1176100 0.0 101832
21:00+15в11775 0.0 101911
8 мая, сб
сб800:00+15в33790 0.0 101858
03:00+15в4479100 0.0 101783
06:00+15всв33745 0.0 101533
09:00+16сз0173100 0.0 101415
12:00+18зсз3366100 0.0 101329
15:00+18сз2265100 0.0 101233
18:00+21ссз335761 0.0 101011
21:00+18всв22645 0.0 101113
9 мая, вс
вс900:00+17всв456175 0.0 101030
03:00+17св027099 0.0 101012
06:00+16сз4582100 0.1 101160
09:00+15юв3492100 3.8 101469
12:00+14ююв8997100 15.6 1016533
15:00+12зсз121692100 35.0 1018720
18:00+12зсз10979100 2.6 1021929
21:00+11зюз3372100 2.9 1024679
10 мая, пн
пн1000:00+12зюз3471100 0.1 1024810
03:00+12ююв336358 0.4 10231134
06:00+12в456199 0.1 10231039
09:00+11сз547394 0.5 1024421
12:00+12юз3363100 0.1 1024663
15:00+12з446169 0.1 1024719
18:00+13зсз45561 0.6 10241173
21:00+13св225596 0.6 1025549
11 мая, вт
вт1100:00+12в4367100 0.1 1024282
03:00+12вюв3364100 0.8 1023298
06:00+11вюв4365100 0.6 1024359
09:00+12вюв4463100 0.8 1024487
12:00+12ююв3368100 0.0 1023380
15:00+12зюз2262100 0.0 1021308
18:00+13зсз446193 0.0 1020273
21:00+14сз336379 0.0 1019232